EZY262 EGAC-EGGD

Flight info

Callsign EZY262
Flight time 0h 43m
Altitude 31000
Route DUFFY L10 RINGA Q39 ETIGA DCT INKOB Q39 NOMSU UQ4 WAL N862 KARNO/N0452F300 DCT ALHUP DCT LUCSA/N0409F230 N862 WEVBE
Aircraft A320/M-SDE3FGHIRWY/LB1

Departure

Time 2026-04-24 00:05
Airport George Best Belfast City Airport (EGAC)

Arrival

Time 2026-04-24 00:48
Airport Bristol Airport (EGGD)
Time Latitude Longitude Altitude Speed Heading
2026-04-23 23:27 54.61535 -5.87090 23 ft 0 kts 126°
2026-04-23 23:53 54.61536 -5.87092 23 ft 1 kts 126°
2026-04-23 23:53 54.61543 -5.87108 23 ft 2 kts 126°
2026-04-23 23:54 54.61552 -5.87130 26 ft 2 kts 126°
2026-04-23 23:54 54.61563 -5.87150 23 ft 2 kts 155°
2026-04-23 23:54 54.61578 -5.87157 23 ft 2 kts 188°
2026-04-23 23:54 54.61593 -5.87149 24 ft 2 kts 212°
2026-04-23 23:55 54.61601 -5.87140 26 ft 0 kts 214°
2026-04-24 00:00 54.61595 -5.87147 25 ft 6 kts 214°
2026-04-24 00:00 54.61550 -5.87201 23 ft 8 kts 215°
2026-04-24 00:00 54.61509 -5.87250 23 ft 7 kts 215°
2026-04-24 00:00 54.61475 -5.87292 25 ft 5 kts 215°
2026-04-24 00:01 54.61446 -5.87326 23 ft 4 kts 215°
2026-04-24 00:01 54.61424 -5.87355 23 ft 5 kts 221°
2026-04-24 00:01 54.61391 -5.87430 23 ft 8 kts 232°
2026-04-24 00:01 54.61345 -5.87490 23 ft 8 kts 215°
2026-04-24 00:02 54.61302 -5.87543 24 ft 7 kts 215°
2026-04-24 00:02 54.61257 -5.87596 23 ft 9 kts 214°
2026-04-24 00:02 54.61209 -5.87654 23 ft 8 kts 214°
2026-04-24 00:02 54.61167 -5.87704 23 ft 7 kts 214°
2026-04-24 00:03 54.61131 -5.87746 23 ft 6 kts 214°
2026-04-24 00:03 54.61102 -5.87782 23 ft 5 kts 216°
2026-04-24 00:03 54.61086 -5.87822 23 ft 4 kts 244°
2026-04-24 00:03 54.61093 -5.87922 24 ft 11 kts 301°
2026-04-24 00:04 54.61136 -5.88021 22 ft 9 kts 317°
2026-04-24 00:04 54.61171 -5.88012 23 ft 7 kts 32°
2026-04-24 00:04 54.61221 -5.87953 22 ft 10 kts 34°
2026-04-24 00:04 54.61456 -5.87671 20 ft 82 kts 34°
2026-04-24 00:05 54.62124 -5.86860 39 ft 148 kts 36°
2026-04-24 00:05 54.63012 -5.85822 648 ft 158 kts 36°
2026-04-24 00:05 54.63632 -5.85083 1209 ft 161 kts 38°
2026-04-24 00:05 54.64550 -5.83900 1727 ft 172 kts 51°
2026-04-24 00:06 54.64961 -5.81944 2015 ft 185 kts 96°
2026-04-24 00:06 54.64471 -5.79832 2295 ft 202 kts 131°
2026-04-24 00:06 54.63278 -5.78315 2643 ft 227 kts 150°
2026-04-24 00:06 54.61842 -5.76983 3186 ft 245 kts 151°
2026-04-24 00:07 54.60314 -5.75593 4003 ft 252 kts 152°
2026-04-24 00:07 54.58739 -5.74174 4936 ft 256 kts 153°
2026-04-24 00:07 54.57152 -5.72742 5833 ft 259 kts 153°
2026-04-24 00:07 54.55539 -5.71285 6723 ft 264 kts 153°
2026-04-24 00:08 54.53900 -5.69804 7537 ft 268 kts 153°
2026-04-24 00:08 54.52238 -5.68296 8344 ft 272 kts 153°
2026-04-24 00:08 54.50548 -5.66761 9163 ft 277 kts 153°
2026-04-24 00:08 54.48830 -5.65208 9981 ft 281 kts 154°
2026-04-24 00:09 54.47076 -5.63628 10687 ft 290 kts 154°
2026-04-24 00:09 54.45220 -5.61960 10944 ft 313 kts 154°
2026-04-24 00:09 54.43224 -5.60166 11162 ft 336 kts 154°
2026-04-24 00:09 54.41146 -5.58093 11600 ft 350 kts 146°
2026-04-24 00:10 54.39292 -5.55331 12256 ft 357 kts 135°
2026-04-24 00:10 54.37753 -5.51949 12953 ft 363 kts 126°
2026-04-24 00:10 54.36312 -5.48366 13665 ft 367 kts 127°
2026-04-24 00:10 54.34872 -5.44806 14343 ft 370 kts 127°
2026-04-24 00:11 54.33376 -5.41123 14967 ft 374 kts 126°
2026-04-24 00:11 54.31902 -5.37501 15590 ft 377 kts 126°
2026-04-24 00:11 54.30393 -5.33809 16212 ft 380 kts 126°
2026-04-24 00:11 54.28865 -5.30080 16838 ft 383 kts 126°
2026-04-24 00:12 54.27315 -5.26346 17438 ft 386 kts 127°
2026-04-24 00:12 54.25675 -5.22698 18039 ft 389 kts 129°
2026-04-24 00:12 54.23956 -5.19105 18625 ft 391 kts 130°
2026-04-24 00:12 54.22196 -5.15537 19120 ft 394 kts 130°
2026-04-24 00:13 54.20413 -5.11951 19627 ft 397 kts 130°
2026-04-24 00:13 54.18627 -5.08338 20137 ft 399 kts 130°
2026-04-24 00:13 54.16842 -5.04689 20631 ft 402 kts 129°
2026-04-24 00:13 54.15053 -5.00999 21118 ft 405 kts 129°
2026-04-24 00:14 54.13260 -4.97286 21587 ft 407 kts 129°
2026-04-24 00:14 54.11449 -4.93531 22071 ft 410 kts 129°
2026-04-24 00:14 54.09632 -4.89776 22551 ft 412 kts 129°
2026-04-24 00:14 54.07796 -4.86003 23011 ft 415 kts 129°
2026-04-24 00:15 54.05947 -4.82209 23455 ft 417 kts 129°
2026-04-24 00:15 54.04092 -4.78401 23922 ft 420 kts 128°
2026-04-24 00:15 54.02266 -4.74501 24288 ft 422 kts 127°
2026-04-24 00:15 54.00483 -4.70519 24653 ft 424 kts 126°
2026-04-24 00:16 53.98742 -4.66531 24997 ft 427 kts 125°
2026-04-24 00:16 53.96972 -4.62457 25347 ft 429 kts 125°
2026-04-24 00:16 53.95187 -4.58380 25684 ft 431 kts 125°
2026-04-24 00:16 53.93378 -4.54291 26023 ft 434 kts 126°
2026-04-24 00:17 53.91551 -4.50204 26357 ft 437 kts 126°
2026-04-24 00:17 53.89700 -4.46096 26688 ft 439 kts 126°
2026-04-24 00:17 53.87835 -4.41969 27012 ft 442 kts 126°
2026-04-24 00:17 53.85977 -4.37793 27327 ft 444 kts 124°
2026-04-24 00:18 53.84175 -4.33523 27629 ft 447 kts 123°
2026-04-24 00:18 53.82412 -4.29176 27928 ft 449 kts 122°
2026-04-24 00:18 53.80662 -4.24787 28220 ft 451 kts 122°
2026-04-24 00:18 53.78901 -4.20369 28523 ft 453 kts 122°
2026-04-24 00:19 53.77121 -4.15952 28775 ft 456 kts 122°
2026-04-24 00:19 53.75311 -4.11526 29066 ft 458 kts 122°
2026-04-24 00:19 53.73479 -4.07091 29352 ft 461 kts 123°
2026-04-24 00:19 53.71660 -4.02708 29657 ft 462 kts 123°
2026-04-24 00:20 53.69813 -3.98273 30068 ft 461 kts 123°
2026-04-24 00:20 53.67946 -3.93788 30482 ft 461 kts 122°
2026-04-24 00:20 53.66131 -3.89424 30802 ft 460 kts 123°
2026-04-24 00:20 53.64297 -3.85007 31127 ft 460 kts 122°
2026-04-24 00:21 53.62460 -3.80593 31352 ft 461 kts 122°
2026-04-24 00:21 53.60615 -3.76179 31402 ft 460 kts 122°
2026-04-24 00:21 53.56933 -3.67395 31402 ft 459 kts 122°
2026-04-24 00:22 53.53251 -3.58618 31402 ft 459 kts 122°
2026-04-24 00:22 53.49555 -3.49855 31405 ft 460 kts 122°
2026-04-24 00:23 53.46176 -3.40794 31411 ft 455 kts 111°
2026-04-24 00:23 53.43698 -3.31037 31417 ft 455 kts 110°
2026-04-24 00:24 53.41099 -3.21338 31428 ft 457 kts 117°
2026-04-24 00:24 53.37094 -3.13089 31440 ft 464 kts 137°
2026-04-24 00:25 53.31596 -3.07356 31439 ft 469 kts 153°
2026-04-24 00:25 53.25702 -3.02655 31438 ft 470 kts 152°
2026-04-24 00:26 53.19810 -2.97945 31440 ft 470 kts 152°
2026-04-24 00:26 53.13911 -2.93240 31443 ft 470 kts 152°
2026-04-24 00:27 53.07777 -2.89464 31442 ft 472 kts 167°
2026-04-24 00:27 53.01221 -2.88747 31445 ft 474 kts 181°
2026-04-24 00:28 52.94632 -2.89255 31443 ft 474 kts 182°
2026-04-24 00:28 52.88063 -2.90119 31442 ft 474 kts 188°
2026-04-24 00:29 52.81582 -2.91732 31440 ft 474 kts 188°
2026-04-24 00:29 52.75045 -2.93248 30344 ft 479 kts 187°
2026-04-24 00:30 52.71714 -2.93993 28905 ft 486 kts 185°
2026-04-24 00:30 52.68369 -2.94345 27658 ft 477 kts 181°
2026-04-24 00:30 52.65106 -2.94605 26999 ft 467 kts 182°
2026-04-24 00:30 52.61858 -2.94875 26259 ft 463 kts 182°
2026-04-24 00:31 52.58660 -2.95146 25560 ft 458 kts 182°
2026-04-24 00:31 52.55488 -2.95416 24856 ft 454 kts 181°
2026-04-24 00:31 52.52344 -2.95679 24167 ft 451 kts 181°
2026-04-24 00:31 52.49226 -2.95935 23413 ft 447 kts 181°
2026-04-24 00:32 52.46152 -2.96184 22759 ft 435 kts 181°
2026-04-24 00:32 52.43229 -2.96426 22156 ft 416 kts 181°
2026-04-24 00:32 52.40361 -2.96670 21585 ft 402 kts 181°
2026-04-24 00:32 52.37611 -2.96904 21034 ft 399 kts 181°
2026-04-24 00:33 52.34856 -2.97133 20502 ft 395 kts 181°
2026-04-24 00:33 52.32113 -2.97356 19989 ft 392 kts 181°
2026-04-24 00:33 52.29400 -2.97574 19480 ft 389 kts 181°
2026-04-24 00:33 52.26706 -2.97791 18998 ft 386 kts 181°
2026-04-24 00:34 52.24037 -2.98005 18494 ft 383 kts 180°
2026-04-24 00:34 52.21393 -2.98218 18001 ft 379 kts 180°
2026-04-24 00:34 52.18774 -2.98430 17531 ft 375 kts 180°
2026-04-24 00:34 52.16179 -2.98639 17053 ft 371 kts 180°
2026-04-24 00:35 52.13605 -2.98848 16566 ft 369 kts 180°
2026-04-24 00:35 52.11039 -2.99057 16235 ft 373 kts 180°
2026-04-24 00:35 52.08411 -2.99265 16147 ft 381 kts 180°
2026-04-24 00:35 52.05756 -2.99475 16010 ft 382 kts 180°
2026-04-24 00:36 52.03104 -2.99690 15862 ft 382 kts 180°
2026-04-24 00:36 52.00453 -2.99907 15712 ft 381 kts 180°
2026-04-24 00:36 51.97805 -3.00117 15571 ft 380 kts 179°
2026-04-24 00:36 51.95185 -2.99879 15421 ft 375 kts 168°
2026-04-24 00:37 51.92682 -2.98931 14817 ft 375 kts 159°
2026-04-24 00:37 51.90262 -2.97481 14100 ft 366 kts 156°
2026-04-24 00:37 51.87901 -2.96043 13437 ft 360 kts 156°
2026-04-24 00:37 51.85566 -2.94623 12809 ft 355 kts 156°
2026-04-24 00:38 51.83318 -2.93274 12543 ft 332 kts 156°
2026-04-24 00:38 51.81233 -2.92036 12421 ft 308 kts 156°
2026-04-24 00:38 51.79278 -2.90880 12156 ft 292 kts 156°
2026-04-24 00:38 51.77343 -2.90029 11649 ft 290 kts 171°
2026-04-24 00:39 51.75315 -2.90112 11030 ft 292 kts 180°
2026-04-24 00:39 51.73288 -2.90345 10492 ft 293 kts 180°
2026-04-24 00:39 51.71269 -2.90595 10148 ft 289 kts 180°
2026-04-24 00:39 51.69277 -2.90843 9504 ft 286 kts 180°
2026-04-24 00:40 51.67299 -2.91086 8910 ft 283 kts 180°
2026-04-24 00:40 51.65348 -2.91320 8337 ft 279 kts 180°
2026-04-24 00:40 51.63433 -2.91545 7844 ft 275 kts 180°
2026-04-24 00:40 51.61533 -2.91764 7360 ft 272 kts 180°
2026-04-24 00:41 51.59642 -2.91979 6886 ft 273 kts 180°
2026-04-24 00:41 51.57743 -2.92198 6462 ft 272 kts 180°
2026-04-24 00:41 51.55864 -2.92419 6067 ft 270 kts 180°
2026-04-24 00:41 51.53994 -2.92642 5574 ft 266 kts 180°
2026-04-24 00:42 51.52156 -2.92860 4869 ft 264 kts 180°
2026-04-24 00:42 51.50338 -2.93075 4208 ft 260 kts 180°
2026-04-24 00:42 51.48556 -2.93288 3771 ft 249 kts 180°
2026-04-24 00:42 51.46914 -2.93492 3714 ft 225 kts 179°
2026-04-24 00:43 51.45409 -2.93677 3654 ft 211 kts 179°
2026-04-24 00:43 51.43992 -2.93841 3562 ft 202 kts 178°
2026-04-24 00:43 51.42617 -2.93996 3472 ft 194 kts 178°
2026-04-24 00:43 51.41283 -2.94146 3387 ft 191 kts 178°
2026-04-24 00:44 51.39962 -2.94287 3303 ft 189 kts 174°
2026-04-24 00:44 51.38754 -2.93857 3239 ft 170 kts 147°
2026-04-24 00:44 51.37924 -2.92670 3124 ft 155 kts 123°
2026-04-24 00:44 51.37539 -2.91073 2844 ft 156 kts 99°
2026-04-24 00:45 51.37572 -2.89356 2600 ft 152 kts 89°
2026-04-24 00:45 51.37641 -2.87752 2491 ft 141 kts 90°
2026-04-24 00:45 51.37701 -2.86233 2286 ft 135 kts 90°
2026-04-24 00:45 51.37759 -2.84750 2103 ft 133 kts 90°
2026-04-24 00:46 51.37818 -2.83269 1918 ft 133 kts 89°
2026-04-24 00:46 51.37876 -2.81801 1733 ft 132 kts 89°
2026-04-24 00:46 51.37934 -2.80334 1546 ft 131 kts 88°
2026-04-24 00:46 51.37992 -2.78874 1357 ft 132 kts 87°
2026-04-24 00:47 51.38049 -2.77436 1173 ft 130 kts 87°
2026-04-24 00:47 51.38107 -2.75980 992 ft 130 kts 85°
2026-04-24 00:47 51.38165 -2.74534 820 ft 130 kts 85°
2026-04-24 00:47 51.38223 -2.73088 650 ft 129 kts 86°
2026-04-24 00:48 51.38272 -2.71775 620 ft 94 kts 86°
2026-04-24 00:48 51.38295 -2.71200 602 ft 24 kts 87°
2026-04-24 00:48 51.38306 -2.70919 603 ft 23 kts 87°
2026-04-24 00:48 51.38336 -2.70763 617 ft 10 kts 31°
2026-04-24 00:49 51.38388 -2.70734 613 ft 5 kts 18°
2026-04-24 00:49 51.38426 -2.70712 614 ft 8 kts 19°
2026-04-24 00:49 51.38468 -2.70761 614 ft 7 kts 282°
2026-04-24 00:49 51.38474 -2.70821 617 ft 3 kts 320°
2026-04-24 00:50 51.38517 -2.70832 610 ft 4 kts 357°
2026-04-24 00:50 51.38548 -2.70837 609 ft 6 kts 360°
2026-04-24 00:50 51.38564 -2.70867 620 ft 2 kts 282°
2026-04-24 00:50 51.38564 -2.70891 610 ft 0 kts 270°
2026-04-24 00:51 51.38564 -2.70900 610 ft 0 kts 269°
2026-04-24 00:51 51.38564 -2.70905 615 ft 1 kts 267°
2026-04-24 00:51 51.38564 -2.70908 615 ft 1 kts 267°
2026-04-24 00:51 51.38564 -2.70912 614 ft 0 kts 267°